Tracking 29967 objects as of 5-Dec-2024
HD Live streaming from Space Station
objects crossing your sky now

CZ-3C DEB

Track CZ-3C DEB now!


NORAD ID: 42477
Int'l Code: 2012-008AM
Perigee: 402.1 km
Apogee: 31,453.0 km
Inclination: 19.9 °
Period: 552.3 minutes
Semi major axis: 22298 km
RCS: Unknown
Launch date: February 24, 2012
Source: People's Republic of China (PRC)
Launch site: Xichang Space Center, China (XSC)

Note: This is SATELLITE DEBRIS
Your satellite tracking list
Your tracking list is empty




NASA's NSSDC Master Catalog

Two Line Element Set (TLE):
1 42477U 12008AM  24339.48014532  .00008471  00000-0  16560-1 0  9992
2 42477  19.8530 282.8103 6962539  45.8239 353.4977  2.60728364 91069
Source of the keplerian elements: AFSPC